Showing default

QIANFAN-69, 62799

Orbit data source: Space-Track

QIANFAN-69, 62799 is a Chinese payload satellite in LEO that was launched on Thu, 23 Jan 2025 UTC via a CHANG ZHENG 6A launch vehicle from the Taiyaun Space Center, China (TSC). Payload-class satellites include a variety of spacecraft equipped with specific instruments for various scientific and technological missions. These include communications satellites like Starlink; space stations such as the ISS; scientific satellites like the Hubble; Earth observation satellites from companies like Planet Labs, Umbra, and HawkEye 360; GPS; miniature CubeSats for education and research; and military/defense satellites.

Loading next visibility...
Identifier
62799, 2025-016Q
Orbit
LEO
Country
Flag of CNCN / PRC
Related business
Manufacturer
SECM
Mission
Operational Commercial Communications
Bus & Motor
QIANFAN, Unknown motor
Mass
267 kg wet, ~267 kg dry
Launch date (UTC)
2025-01-23 (1 year ago)
Launch vehicle
CHANG ZHENG 6A
Launch site
Taiyaun Space Center, China (TSC)
Object type
Payload
Rocket body
Debris
Shape & HBR
Box + 1 Pan, 1.3 m
Radar Cross Section
13.200 m², Large (>1 m²)

Expand to show TLE details & history
Last TLE update: 7 hours ago

TLE from 7 hours ago
0 QIANFAN-69
1 62799U 25016Q   26035.76438163  .00000114  00000-0  15816-3 0  9991
2 62799  88.9712  97.3773 0016179 181.7621 178.3476 13.50990463 54573
Epoch: 2026-02-04T18:20Z
TLE epoch observation values (Epoch: 2026-02-04T18:20:42.572Z)
Latitude
-0.00003°
Longitude
47.27364°
Altitude
1,083.615 km
Speed
7.304 km/s
True Right ascension
06h 29m 30s
True Declination
0° 00' 00"
Sunlit
Object was in full shadow at epoch
Visualization orbit readout
Latitude
Unknown
Longitude
Unknown
Altitude
Unknown
Speed
Unknown
Apparent Right ascension
Unknown
Apparent Declination
Unknown
Sunlit
N/A
Visualization observer readout
Local Sidereal Time
03:17:22
Azimuth
Unknown
Elevation
Unknown
Doppler factor
Unknown
Orbital elements
Apogee altitude
1,077.711 km
Perigee altitude
1,053.624 km
Semi-major axis
7,443.805 km
Eccentricity
0.00162
Inclination
88.9712°
RAAN
97.3773°
Arg. of periapsis
181.7621°
True anomaly
178.35294°
Mean anomaly
178.3476°
Eccentric anomaly
178.35027°
Mean motion
3.37949 °/min
Orbital period
106.53 mins
BSTAR
0.00015816
Loading maneuver chart data...
Computing Atmospheric mass density...
Loading historical data...
Loading historical data...
Loading historical data...
Loading historical data...
Loading historical data...
Loading historical data...
Loading historical data...

Documentation

Showing up to 5 results
|